• In United Kingdom
  • List of Countries
  • For 7 days
  • Water Temperature
  • Satellite Maps
  • Weather Map
  • Weather Widgets
  • user-avatar
    Login

    Hourly Weather Kurytyba

    Today, 24 September, Monday

    Time Temperature Precipitation Wind Pressure Humidity
    00:00 +20°C° 0 mm 1 mps 682 mmHg 80%
    01:00 +20°C° 0 mm 1 mps 682 mmHg 79%
    02:00 +20°C° 0 mm 1 mps 681 mmHg 78%
    03:00 +19°C° 0 mm 1 mps 681 mmHg 78%
    04:00 +19°C° 0 mm 1 mps 681 mmHg 76%
    05:00 +19°C° 0 mm 1 mps 681 mmHg 75%
    06:00 +19°C° 0 mm 1 mps 681 mmHg 74%
    07:00 +22°C° 0 mm 1 mps 682 mmHg 65%
    08:00 +22°C° 0 mm 0 mps 682 mmHg 57%
    09:00 +25°C° 0 mm 0 mps 683 mmHg 48%
    10:00 +29°C° 0 mm 1 mps 684 mmHg 44%
    11:00 +31°C° 0 mm 1 mps 684 mmHg 40%
    12:00 +33°C° 0 mm 1 mps 684 mmHg 36%
    13:00 +32°C° 0 mm 1 mps 684 mmHg 38%
    14:00 +31°C° 0 mm 1 mps 683 mmHg 40%
    15:00 +31°C° 0 mm 1 mps 682 mmHg 42%
    16:00 +29°C° 0 mm 1 mps 682 mmHg 51%
    17:00 +27°C° 0 mm 1 mps 682 mmHg 60%
    18:00 +25°C° 0 mm 1 mps 682 mmHg 69%
    19:00 +23°C° 0.5 mm 1 mps 682 mmHg 75%
    20:00 +22°C° 0.5 mm 1 mps 682 mmHg 81%
    21:00 +19°C° 0.5 mm 0 mps 683 mmHg 87%
    22:00 +19°C° 0.1 mm 0 mps 682 mmHg 87%
    23:00 +19°C° 0.1 mm 0 mps 682 mmHg 86%

    Tomorrow, 25 September, Tuesday

    Time Temperature Precipitation Wind Pressure Humidity
    00:00 +19°C° 0.1 mm 0 mps 682 mmHg 86%
    01:00 +18°C° 0 mm 0 mps 682 mmHg 87%
    02:00 +18°C° 0 mm 0 mps 681 mmHg 87%
    03:00 +17°C° 0 mm 0 mps 680 mmHg 87%
    04:00 +17°C° 0 mm 0 mps 680 mmHg 87%
    05:00 +16°C° 0 mm 0 mps 680 mmHg 87%
    06:00 +16°C° 0 mm 0 mps 680 mmHg 87%
    07:00 +20°C° 0 mm 1 mps 681 mmHg 76%
    08:00 +23°C° 0 mm 1 mps 682 mmHg 65%
    09:00 +25°C° 0 mm 1 mps 683 mmHg 54%
    10:00 +27°C° 0 mm 1 mps 683 mmHg 48%
    11:00 +29°C° 0 mm 1 mps 683 mmHg 43%
    12:00 +31°C° 0 mm 1 mps 683 mmHg 37%
    13:00 +31°C° 0 mm 1 mps 682 mmHg 37%
    14:00 +31°C° 0 mm 1 mps 682 mmHg 37%
    15:00 +31°C° 0 mm 1 mps 681 mmHg 37%
    16:00 +28°C° 0 mm 1 mps 681 mmHg 47%
    17:00 +26°C° 0 mm 1 mps 680 mmHg 58%
    18:00 +24°C° 0 mm 1 mps 680 mmHg 68%
    19:00 +23°C° 0 mm 1 mps 680 mmHg 75%
    20:00 +21°C° 0 mm 1 mps 680 mmHg 81%
    21:00 +20°C° 0 mm 1 mps 681 mmHg 88%
    22:00 +20°C° 0 mm 1 mps 680 mmHg 89%
    23:00 +19°C° 0 mm 1 mps 680 mmHg 90%

    Day after tomorrow, 26 September, Wednesday

    Time Temperature Precipitation Wind Pressure Humidity
    00:00 +19°C° 0 mm 1 mps 680 mmHg 92%
    01:00 +19°C° 0 mm 1 mps 679 mmHg 92%
    02:00 +18°C° 0 mm 1 mps 679 mmHg 92%
    03:00 +16°C° 0 mm 0 mps 678 mmHg 92%
    04:00 +18°C° 0 mm 1 mps 678 mmHg 91%
    05:00 +18°C° 0 mm 1 mps 679 mmHg 89%
    06:00 +18°C° 0 mm 1 mps 679 mmHg 87%
    07:00 +20°C° 0 mm 1 mps 679 mmHg 80%
    08:00 +22°C° 0 mm 1 mps 680 mmHg 73%
    09:00 +23°C° 0 mm 1 mps 681 mmHg 66%
    10:00 +25°C° 0 mm 1 mps 681 mmHg 58%
    11:00 +27°C° 0 mm 2 mps 681 mmHg 51%
    12:00 +29°C° 0 mm 3 mps 681 mmHg 44%
    13:00 +28°C° 0.1 mm 3 mps 680 mmHg 47%
    14:00 +27°C° 0.1 mm 3 mps 680 mmHg 51%
    15:00 +27°C° 0.1 mm 2 mps 679 mmHg 55%
    16:00 +25°C° 0 mm 2 mps 679 mmHg 61%
    17:00 +24°C° 0 mm 1 mps 678 mmHg 67%
    18:00 +23°C° 0 mm 1 mps 678 mmHg 74%
    19:00 +22°C° 0.1 mm 1 mps 678 mmHg 76%
    20:00 +22°C° 0.1 mm 1 mps 679 mmHg 79%
    21:00 +21°C° 0.1 mm 1 mps 679 mmHg 81%
    22:00 +21°C° 0 mm 1 mps 679 mmHg 83%
    23:00 +18°C° 0 mm 0 mps 679 mmHg 86%

    27 September, Thursday

    Time Temperature Precipitation Wind Pressure Humidity
    00:00 +18°C° 0 mm 0 mps 679 mmHg 88%
    01:00 +17°C° 0.1 mm 0 mps 678 mmHg 88%
    02:00 +19°C° 0.1 mm 1 mps 678 mmHg 89%
    03:00 +19°C° 0.1 mm 1 mps 678 mmHg 89%
    04:00 +19°C° 0 mm 1 mps 678 mmHg 89%
    05:00 +19°C° 0 mm 1 mps 678 mmHg 89%
    06:00 +19°C° 0 mm 1 mps 678 mmHg 90%
    07:00 +21°C° 0 mm 1 mps 679 mmHg 82%
    08:00 +22°C° 0 mm 1 mps 680 mmHg 74%
    09:00 +22°C° 0 mm 0 mps 681 mmHg 66%
    10:00 +26°C° 0 mm 1 mps 681 mmHg 60%
    11:00 +28°C° 0 mm 1 mps 681 mmHg 53%
    12:00 +30°C° 0 mm 1 mps 681 mmHg 47%
    13:00 +30°C° 0 mm 1 mps 680 mmHg 48%
    14:00 +29°C° 0 mm 1 mps 680 mmHg 49%
    15:00 +29°C° 0 mm 1 mps 679 mmHg 50%
    16:00 +27°C° 0.5 mm 1 mps 679 mmHg 61%
    17:00 +25°C° 0.5 mm 1 mps 679 mmHg 71%
    18:00 +23°C° 0.5 mm 1 mps 679 mmHg 82%
    19:00 +22°C° 0.9 mm 1 mps 680 mmHg 86%
    20:00 +21°C° 0.9 mm 1 mps 680 mmHg 90%
    21:00 +21°C° 0.9 mm 1 mps 681 mmHg 93%
    22:00 +20°C° 1.1 mm 1 mps 681 mmHg 94%
    23:00 +20°C° 1.1 mm 1 mps 681 mmHg 95%

    28 September, Friday

    Time Temperature Precipitation Wind Pressure Humidity
    00:00 +20°C° 1.1 mm 1 mps 680 mmHg 96%
    01:00 +19°C° 0 mm 1 mps 680 mmHg 97%
    02:00 +19°C° 0 mm 1 mps 680 mmHg 97%
    03:00 +19°C° 0 mm 1 mps 680 mmHg 97%
    04:00 +19°C° 0 mm 1 mps 680 mmHg 98%
    05:00 +19°C° 0 mm 1 mps 680 mmHg 98%
    06:00 +19°C° 0 mm 1 mps 680 mmHg 98%
    07:00 +20°C° 0 mm 1 mps 680 mmHg 93%
    08:00 +21°C° 0 mm 1 mps 681 mmHg 87%
    09:00 +22°C° 0 mm 1 mps 682 mmHg 82%
    10:00 +24°C° 0 mm 1 mps 682 mmHg 75%
    11:00 +25°C° 0 mm 1 mps 682 mmHg 68%
    12:00 +27°C° 0 mm 2 mps 682 mmHg 61%
    13:00 +26°C° 0.4 mm 2 mps 681 mmHg 64%
    14:00 +26°C° 0.4 mm 2 mps 681 mmHg 66%
    15:00 +26°C° 0.4 mm 2 mps 680 mmHg 69%
    16:00 +24°C° 0.8 mm 2 mps 680 mmHg 76%
    17:00 +23°C° 0.8 mm 2 mps 680 mmHg 84%
    18:00 +21°C° 0.8 mm 1 mps 680 mmHg 92%
    19:00 +21°C° 1 mm 1 mps 681 mmHg 93%
    20:00 +20°C° 1 mm 1 mps 681 mmHg 95%
    21:00 +20°C° 1 mm 1 mps 681 mmHg 96%
    22:00 +19°C° 0.2 mm 1 mps 681 mmHg 97%
    23:00 +19°C° 0.2 mm 1 mps 681 mmHg 97%

    29 September, Saturday

    Time Temperature Precipitation Wind Pressure Humidity
    00:00 +19°C° 0.2 mm 1 mps 680 mmHg 97%
    01:00 +19°C° 0 mm 1 mps 680 mmHg 97%
    02:00 +19°C° 0 mm 1 mps 680 mmHg 97%
    03:00 +19°C° 0 mm 1 mps 679 mmHg 97%
    04:00 +19°C° 0.1 mm 1 mps 680 mmHg 97%
    05:00 +19°C° 0.1 mm 1 mps 680 mmHg 97%
    06:00 +19°C° 0.1 mm 1 mps 680 mmHg 97%
    07:00 +20°C° 0 mm 1 mps 681 mmHg 93%
    08:00 +20°C° 0 mm 1 mps 681 mmHg 89%
    09:00 +21°C° 0 mm 1 mps 682 mmHg 85%
    10:00 +23°C° 0.1 mm 1 mps 682 mmHg 78%
    11:00 +24°C° 0.1 mm 1 mps 682 mmHg 71%
    12:00 +26°C° 0.1 mm 1 mps 681 mmHg 65%
    13:00 +26°C° 0.1 mm 1 mps 681 mmHg 64%
    14:00 +26°C° 0.1 mm 1 mps 680 mmHg 64%
    15:00 +26°C° 0.1 mm 1 mps 680 mmHg 63%
    16:00 +25°C° 0.1 mm 1 mps 680 mmHg 70%
    17:00 +24°C° 0.1 mm 1 mps 679 mmHg 77%
    18:00 +22°C° 0.1 mm 1 mps 679 mmHg 83%
    19:00 +22°C° 0 mm 1 mps 680 mmHg 87%
    20:00 +21°C° 0 mm 1 mps 680 mmHg 91%
    21:00 +20°C° 0 mm 1 mps 680 mmHg 95%
    22:00 +19°C° 0 mm 1 mps 680 mmHg 96%
    23:00 +19°C° 0 mm 1 mps 680 mmHg 97%
    Show more

    3.3.7123123